| time (UTC) | temp F | wind direction | speed MPH | gust MPH | rain 1hr in | rain 24hr in | rain mn in | humidity % | barometer mb |
| 20260506090024 | 50 | 124 | 4.0 | 9.0 | 0.00 | 0.00 | 0.00 | 86 | 1008.0 |
| 20260506084530 | 51 | 105 | 4.0 | 8.0 | 0.00 | 0.00 | 0.00 | 86 | 1007.9 |
| 20260506083024 | 51 | 111 | 3.0 | 9.0 | 0.00 | 0.00 | 0.00 | 86 | 1007.8 |
| 20260506081516 | 51 | 119 | 4.0 | 8.0 | 0.00 | 0.00 | 0.00 | 85 | 1008.0 |
| 20260506073009 | 53 | 100 | 5.0 | 12.0 | 0.00 | 0.00 | 0.00 | 84 | 1007.6 |
| 20260506071505 | 53 | 113 | 4.0 | 12.0 | 0.00 | 0.00 | 0.00 | 84 | 1007.7 |
| 20260506061554 | 55 | 106 | 4.0 | 10.0 | 0.00 | 0.00 | 0.00 | 81 | 1007.4 |
| 20260506044532 | 60 | 134 | 7.0 | 15.0 | 0.00 | 0.00 | 0.00 | 73 | 1006.8 |
| 20260506043029 | 61 | 129 | 7.0 | 14.0 | 0.00 | 0.00 | 0.00 | 71 | 1006.8 |
| 20260506041536 | 62 | 139 | 4.0 | 9.0 | 0.00 | 0.00 | 0.00 | 71 | 1006.5 |
| 20260506040021 | 63 | 120 | 8.0 | 13.0 | 0.00 | 0.00 | 0.00 | 69 | 1006.6 |
| 20260506034528 | 64 | 139 | 5.0 | 13.0 | 0.00 | 0.00 | 0.00 | 67 | 1006.4 |
| 20260506033016 | 64 | 139 | 8.0 | 17.0 | 0.00 | 0.00 | 0.00 | 66 | 1006.2 |
| 20260506031511 | 65 | 116 | 6.0 | 13.0 | 0.00 | 0.00 | 0.00 | 66 | 1005.6 |
| 20260506030010 | 65 | 141 | 6.0 | 11.0 | 0.00 | 0.00 | 0.00 | 66 | 1005.4 |
| 20260506024507 | 66 | 133 | 5.0 | 9.0 | 0.00 | 0.00 | 0.00 | 67 | 1005.2 |
| 20260506023005 | 66 | 130 | 2.0 | 7.0 | 0.00 | 0.00 | 0.00 | 68 | 1004.9 |
| 20260506021504 | 68 | 124 | 4.0 | 9.0 | 0.00 | 0.00 | 0.00 | 65 | 1004.6 |
| 20260506020002 | 69 | 138 | 3.0 | 9.0 | 0.00 | 0.00 | 0.00 | 64 | 1004.2 |
| 20260506014559 | 69 | 150 | 6.0 | 9.0 | 0.00 | 0.00 | 0.00 | 64 | 1004.1 |
| 20260506013104 | 71 | 130 | 4.0 | 10.0 | 0.00 | 0.00 | 0.00 | 63 | 1003.7 |
| 20260506011605 | 72 | 126 | 6.0 | 14.0 | 0.00 | 0.00 | 0.00 | 61 | 1003.5 |
| 20260506010056 | 73 | 115 | 4.0 | 8.0 | 0.00 | 0.00 | 0.00 | 60 | 1003.3 |
| 20260506004600 | 74 | 123 | 5.0 | 11.0 | 0.00 | 0.00 | 0.00 | 59 | 1003.1 |
| 20260506003056 | 74 | 126 | 7.0 | 19.0 | 0.00 | 0.00 | 0.00 | 57 | 1002.7 |
| 20260506001558 | 75 | 147 | 5.0 | 12.0 | 0.00 | 0.00 | 0.00 | 57 | 1002.6 |
| 20260505234554 | 79 | 136 | 6.0 | 13.0 | 0.00 | 0.00 | 0.00 | 56 | 1002.0 |
| 20260505233057 | 80 | 109 | 5.0 | 13.0 | 0.00 | 0.00 | 0.00 | 54 | 1001.4 |
| 20260505231554 | 85 | 86 | 5.0 | 11.0 | 0.00 | 0.00 | 0.00 | 45 | 1001.8 |
| 20260505230119 | 87 | 313 | 2.0 | 10.0 | 0.00 | 0.00 | 0.00 | 38 | 1001.3 |
| 20260505224553 | 88 | 306 | 4.0 | 8.0 | 0.00 | 0.00 | 0.00 | 37 | 1001.1 |
| 20260505223052 | 88 | 327 | 5.0 | 12.0 | 0.00 | 0.00 | 0.00 | 36 | 1001.1 |
| 20260505221557 | 89 | 321 | 4.0 | 10.0 | 0.00 | 0.00 | 0.00 | 38 | 1001.0 |
| 20260505220055 | 89 | 338 | 4.0 | 12.0 | 0.00 | 0.00 | 0.00 | 37 | 1001.1 |
| 20260505214548 | 89 | 360 | 4.0 | 9.0 | 0.00 | 0.00 | 0.00 | 37 | 1001.3 |
| 20260505213046 | 89 | 337 | 4.0 | 11.0 | 0.00 | 0.00 | 0.00 | 37 | 1001.5 |
| 20260505211557 | 88 | 355 | 2.0 | 6.0 | 0.00 | 0.00 | 0.00 | 40 | 1001.6 |
| 20260505210043 | 90 | 5 | 2.0 | 12.0 | 0.00 | 0.00 | 0.00 | 39 | 1001.6 |
| 20260505204540 | 88 | 346 | 2.0 | 9.0 | 0.00 | 0.00 | 0.00 | 40 | 1001.9 |
| 20260505203040 | 89 | 44 | 2.0 | 8.0 | 0.00 | 0.00 | 0.00 | 39 | 1002.2 |
| 20260505201538 | 88 | 331 | 3.0 | 10.0 | 0.00 | 0.00 | 0.00 | 40 | 1002.6 |
| 20260505200041 | 88 | 308 | 4.0 | 9.0 | 0.00 | 0.00 | 0.00 | 41 | 1002.6 |
| 20260505194541 | 88 | 313 | 3.0 | 10.0 | 0.00 | 0.00 | 0.00 | 45 | 1002.7 |
| 20260505193041 | 87 | 5 | 3.0 | 10.0 | 0.00 | 0.00 | 0.00 | 44 | 1002.9 |
| 20260505191540 | 87 | 360 | 3.0 | 10.0 | 0.00 | 0.00 | 0.00 | 45 | 1003.0 |
| 20260505190031 | 85 | 317 | 4.0 | 11.0 | 0.00 | 0.00 | 0.00 | 47 | 1003.0 |
| 20260505184530 | 85 | 11 | 6.0 | 12.0 | 0.00 | 0.00 | 0.00 | 47 | 1003.2 |
| 20260505183034 | 85 | 314 | 4.0 | 10.0 | 0.00 | 0.00 | 0.00 | 47 | 1003.4 |
| 20260505181526 | 84 | 305 | 4.0 | 14.0 | 0.00 | 0.00 | 0.00 | 53 | 1003.4 |
| 20260505180024 | 83 | 15 | 6.0 | 11.0 | 0.00 | 0.00 | 0.00 | 53 | 1003.4 |
| 20260505174525 | 83 | 325 | 5.0 | 10.0 | 0.00 | 0.00 | 0.00 | 52 | 1003.5 |
| 20260505173021 | 82 | 350 | 4.0 | 12.0 | 0.00 | 0.00 | 0.00 | 56 | 1003.6 |
| 20260505171519 | 81 | 317 | 4.0 | 12.0 | 0.00 | 0.00 | 0.00 | 58 | 1003.6 |
| 20260505170016 | 82 | 313 | 6.0 | 12.0 | 0.00 | 0.00 | 0.00 | 60 | 1003.6 |
| 20260505164512 | 80 | 324 | 5.0 | 12.0 | 0.00 | 0.00 | 0.00 | 65 | 1003.6 |
| 20260505163010 | 78 | 360 | 6.0 | 12.0 | 0.00 | 0.00 | 0.00 | 70 | 1003.8 |
| 20260505161527 | 78 | 309 | 4.0 | 10.0 | 0.00 | 0.00 | 0.00 | 71 | 1003.6 |
| 20260505153100 | 75 | 360 | 6.0 | 17.0 | 0.00 | 0.00 | 0.00 | 76 | 1003.2 |
| 20260505151555 | 74 | 294 | 5.0 | 12.0 | 0.00 | 0.00 | 0.00 | 78 | 1003.1 |
| 20260505150104 | 73 | 304 | 8.0 | 15.0 | 0.00 | 0.00 | 0.00 | 79 | 1003.0 |
| 20260505124549 | 66 | 278 | 7.0 | 14.0 | 0.00 | 0.00 | 0.00 | 86 | 1002.3 |
| 20260505123043 | 65 | 304 | 6.0 | 14.0 | 0.00 | 0.00 | 0.00 | 87 | 1002.2 |
| 20260505121544 | 65 | 286 | 7.0 | 14.0 | 0.00 | 0.00 | 0.00 | 87 | 1002.2 |
| 20260505120041 | 65 | 294 | 6.0 | 13.0 | 0.00 | 0.00 | 0.00 | 87 | 1001.9 |
| 20260505114538 | 65 | 297 | 9.0 | 14.0 | 0.00 | 0.00 | 0.00 | 86 | 1001.9 |
| 20260505113037 | 65 | 300 | 7.0 | 14.0 | 0.00 | 0.00 | 0.00 | 86 | 1001.8 |
| 20260505111535 | 65 | 309 | 7.0 | 12.0 | 0.00 | 0.00 | 0.00 | 86 | 1001.8 |
| 20260505101533 | 66 | 276 | 8.0 | 14.0 | 0.00 | 0.00 | 0.00 | 84 | 1001.8 |
| 20260505094521 | 67 | 330 | 8.0 | 15.0 | 0.00 | 0.00 | 0.00 | 83 | 1002.0 |
| 20260505093019 | 67 | 292 | 9.0 | 16.0 | 0.00 | 0.00 | 0.00 | 83 | 1002.1 |
| 20260505091516 | 67 | 288 | 7.0 | 14.0 | 0.00 | 0.00 | 0.00 | 83 | 1002.2 |